QPF
0.00 0.00 0.00 0.00 0.00 0.00 0.00 0.00 0.00 0.00 0.00 0.00 0.00 0.00 0.00 0.00 0.00 0.00 0.00 0.00 0.00 0.00 0.00 0.01 0.00 0.00 0.01 0.01 0.01 0.01 0.01 0.01 0.01 0.01 0.01 0.01 0.01 0.00 0.00 0.00 0.00 0.00 0.00 0.01 0.01 0.01 0.00 0.00 0.00
0.00 0.00 0.00 0.00 0.00 0.00 0.00 0.00 0.00 0.00 0.00 0.00 0.00 0.00 0.00 0.00 0.00 0.00 0.00 0.00 0.00 0.00 0.00 0.00 0.00 0.00 0.01 0.01 0.01 0.01 0.01 0.01 0.01 0.01 0.01 0.01 0.00 0.00 0.00 0.00 0.00 0.00 0.00 0.00 0.00 0.00 0.00 0.00 0.00
0.00 0.00 0.00 0.00 0.00 0.00 0.00 0.00 0.00 0.00 0.00 0.00 0.00 0.00 0.00 0.00 0.00 0.00 0.00 0.00 0.00 0.00 0.00 0.00 0.00 0.00 0.01 0.01 0.00 0.01 0.01 0.01 0.00 0.01 0.01 0.01 0.00 0.00 0.00 0.00 0.00 0.00 0.00 0.00 0.00 0.00 0.00 0.00 0.00
0.00 0.00 0.00 0.00 0.00 0.00 0.00 0.00 0.00 0.00 0.00 0.00 0.00 0.00 0.00 0.00 0.00 0.00 0.00 0.00 0.00 0.00 0.00 0.00 0.00 0.00 0.01 0.01 0.00 0.00 0.01 0.01 0.01 0.01 0.01 0.00 0.00 0.00 0.00 0.00 0.00 0.00 0.00 0.00 0.00 0.00 0.00 0.00 0.00
0.00 0.00 0.00 0.00 0.00 0.00 0.00 0.00 0.00 0.00 0.00 0.00 0.00 0.00 0.00 0.00 0.00 0.00 0.00 0.00 0.00 0.00 0.00 0.00 0.00 0.00 0.01 0.01 0.00 0.00 0.01 0.01 0.01 0.01 0.01 0.00 0.00 0.00 0.00 0.00 0.00 0.00 0.00 0.00 0.00 0.00 0.00 0.00 0.00
0.00 0.00 0.00 0.00 0.00 0.00 0.00 0.00 0.00 0.00 0.00 0.00 0.00 0.00 0.00 0.00 0.00 0.00 0.00 0.00 0.00 0.00 0.00 0.00 0.01 0.01 0.01 0.01 0.01 0.00 0.01 0.01 0.01 0.01 0.01 0.00 0.00 0.00 0.00 0.00 0.00 0.00 0.00 0.00 0.00 0.00 0.00 0.00 0.00
0.00 0.00 0.00 0.00 0.00 0.00 0.00 0.00 0.00 0.00 0.00 0.00 0.00 0.00 0.00 0.00 0.00 0.00 0.00 0.00 0.00 0.00 0.00 0.00 0.00 0.01 0.01 0.01 0.01 0.00 0.01 0.01 0.01 0.01 0.01 0.01 0.00 0.00 0.00 0.00 0.00 0.00 0.00 0.00 0.00 0.00 0.00 0.00 0.00
0.00 0.00 0.00 0.00 0.00 0.00 0.00 0.00 0.00 0.00 0.00 0.00 0.00 0.00 0.00 0.00 0.00 0.00 0.00 0.00 0.00 0.00 0.00 0.00 0.00 0.00 0.00 0.01 0.01 0.01 0.01 0.01 0.01 0.01 0.01 0.00 0.00 0.00 0.00 0.00 0.00 0.00 0.00 0.00 0.00 0.00 0.00 0.00 0.00
0.00 0.00 0.00 0.00 0.00 0.00 0.00 0.00 0.00 0.00 0.00 0.00 0.00 0.00 0.00 0.00 0.00 0.00 0.00 0.00 0.00 0.00 0.00 0.00 0.00 0.00 0.00 0.00 0.01 0.01 0.01 0.01 0.01 0.01 0.01 0.00 0.00 0.00 0.00 0.00 0.00 0.00 0.00 0.00 0.00 0.00 0.00 0.00 0.00
0.00 0.00 0.00 0.00 0.00 0.00 0.00 0.00 0.00 0.00 0.00 0.00 0.00 0.00 0.00 0.00 0.00 0.00 0.00 0.00 0.00 0.00 0.00 0.00 0.00 0.00 0.00 0.00 0.00 0.00 0.00 0.01 0.00 0.00 0.00 0.00 0.00 0.00 0.00 0.00 0.00 0.00 0.00 0.00 0.00 0.00 0.00 0.00 0.00
0.00 0.00 0.00 0.00 0.00 0.00 0.00 0.00 0.00 0.00 0.00 0.00 0.00 0.00 0.00 0.00 0.00 0.00 0.00 0.00 0.00 0.00 0.00 0.00 0.00 0.00 0.00 0.00 0.00 0.00 0.00 0.00 0.00 0.00 0.00 0.00 0.00 0.00 0.00 0.00 0.00 0.00 0.00 0.00 0.00 0.00 0.00 0.00 0.00
0.00 0.00 0.00 0.00 0.00 0.00 0.00 0.00 0.00 0.00 0.00 0.00 0.00 0.00 0.00 0.00 0.00 0.00 0.00 0.00 0.00 0.00 0.00 0.00 0.00 0.00 0.00 0.00 0.00 0.00 0.00 0.00 0.00 0.00 0.00 0.00 0.00 0.00 0.00 0.00 0.00 0.00 0.00 0.00 0.00 0.00 0.00 0.00 0.00
0.00 0.00 0.00 0.00 0.00 0.00 0.00 0.00 0.00 0.00 0.00 0.00 0.00 0.00 0.00 0.00 0.00 0.00 0.00 0.00 0.00 0.00 0.00 0.00 0.00 0.00 0.00 0.00 0.00 0.00 0.00 0.00 0.00 0.00 0.00 0.00 0.00 0.00 0.00 0.00 0.00 0.00 0.00 0.00 0.00 0.00 0.00 0.00 0.00
0.00 0.00 0.00 0.00 0.00 0.00 0.00 0.00 0.00 0.00 0.00 0.00 0.00 0.00 0.00 0.00 0.00 0.00 0.00 0.00 0.00 0.00 0.00 0.00 0.00 0.00 0.00 0.00 0.00 0.00 0.00 0.00 0.00 0.00 0.00 0.00 0.00 0.00 0.00 0.00 0.00 0.00 0.00 0.00 0.00 0.00 0.00 0.00 0.00
0.00 0.00 0.00 0.00 0.00 0.00 0.00 0.00 0.00 0.00 0.00 0.00 0.00 0.00 0.00 0.00 0.00 0.00 0.00 0.00 0.00 0.00 0.00 0.00 0.00 0.00 0.00 0.00 0.00 0.00 0.00 0.00 0.00 0.00 0.00 0.00 0.00 0.00 0.00 0.00 0.00 0.00 0.00 0.00 0.00 0.00 0.00 0.00 0.00
0.00 0.00 0.00 0.00 0.00 0.00 0.00 0.00 0.00 0.00 0.00 0.00 0.00 0.00 0.00 0.00 0.00 0.00 0.00 0.00 0.00 0.00 0.00 0.00 0.00 0.00 0.00 0.00 0.00 0.00 0.00 0.00 0.00 0.00 0.00 0.00 0.00 0.00 0.00 0.00 0.00 0.00 0.00 0.00 0.00 0.00 0.00 0.00 0.00
0.00 0.00 0.00 0.00 0.00 0.00 0.00 0.00 0.00 0.00 0.00 0.00 0.00 0.00 0.00 0.00 0.00 0.00 0.00 0.00 0.00 0.00 0.00 0.00 0.00 0.00 0.00 0.00 0.00 0.00 0.00 0.00 0.00 0.00 0.00 0.00 0.00 0.00 0.00 0.00 0.00 0.00 0.00 0.00 0.00 0.00 0.00 0.00 0.00
0.00 0.00 0.00 0.00 0.00 0.00 0.00 0.00 0.00 0.00 0.00 0.00 0.00 0.00 0.00 0.00 0.00 0.00 0.00 0.00 0.00 0.00 0.00 0.00 0.00 0.00 0.00 0.00 0.00 0.00 0.00 0.00 0.00 0.00 0.00 0.00 0.00 0.00 0.00 0.00 0.00 0.00 0.00 0.00 0.00 0.00 0.00 0.00 0.00
0.00 0.00 0.00 0.00 0.00 0.00 0.00 0.00 0.00 0.00 0.00 0.00 0.00 0.00 0.00 0.00 0.00 0.00 0.00 0.00 0.00 0.00 0.00 0.00 0.00 0.00 0.00 0.00 0.00 0.00 0.00 0.00 0.00 0.00 0.00 0.00 0.00 0.00 0.00 0.00 0.00 0.00 0.00 0.00 0.00 0.00 0.00 0.00 0.00
0.00 0.00 0.00 0.00 0.00 0.00 0.00 0.00 0.00 0.00 0.00 0.00 0.00 0.00 0.00 0.00 0.00 0.00 0.00 0.00 0.00 0.00 0.00 0.00 0.00 0.00 0.00 0.00 0.00 0.00 0.00 0.00 0.00 0.00 0.00 0.00 0.00 0.00 0.00 0.00 0.00 0.00 0.00 0.00 0.00 0.00 0.00 0.00 0.00
0.00 0.00 0.00 0.00 0.00 0.00 0.00 0.00 0.00 0.00 0.00 0.00 0.00 0.00 0.00 0.00 0.00 0.00 0.00 0.00 0.00 0.00 0.00 0.00 0.00 0.00 0.00 0.00 0.00 0.00 0.00 0.00 0.00 0.00 0.00 0.00 0.00 0.00 0.00 0.00 0.00 0.00 0.00 0.00 0.00 0.00 0.00 0.00 0.00
0.00 0.00 0.00 0.00 0.00 0.00 0.00 0.00 0.00 0.00 0.00 0.00 0.00 0.00 0.00 0.00 0.00 0.00 0.00 0.00 0.00 0.00 0.00 0.00 0.00 0.00 0.00 0.00 0.00 0.00 0.00 0.00 0.00 0.00 0.00 0.00 0.00 0.00 0.00 0.00 0.00 0.00 0.00 0.00 0.00 0.00 0.00 0.00 0.00
0.00 0.00 0.00 0.00 0.00 0.00 0.00 0.00 0.00 0.00 0.00 0.00 0.00 0.00 0.00 0.00 0.00 0.00 0.00 0.00 0.00 0.00 0.00 0.00 0.00 0.00 0.00 0.00 0.00 0.00 0.00 0.00 0.00 0.00 0.00 0.00 0.00 0.00 0.00 0.00 0.00 0.00 0.00 0.00 0.00 0.00 0.00 0.00 0.00
0.00 0.00 0.00 0.00 0.00 0.00 0.00 0.00 0.00 0.00 0.00 0.00 0.00 0.00 0.00 0.00 0.00 0.00 0.00 0.00 0.00 0.00 0.00 0.00 0.00 0.00 0.00 0.00 0.00 0.00 0.00 0.00 0.00 0.00 0.00 0.00 0.00 0.00 0.00 0.00 0.00 0.00 0.00 0.00 0.00 0.00 0.00 0.00 0.00
0.00 0.00 0.00 0.00 0.00 0.00 0.00 0.00 0.00 0.00 0.00 0.00 0.00 0.00 0.00 0.00 0.00 0.00 0.00 0.00 0.00 0.00 0.00 0.00 0.00 0.00 0.00 0.00 0.00 0.00 0.00 0.00 0.00 0.00 0.00 0.00 0.00 0.00 0.00 0.00 0.00 0.00 0.00 0.00 0.00 0.00 0.00 0.00 0.00
0.00 0.00 0.00 0.00 0.00 0.00 0.00 0.00 0.00 0.00 0.00 0.00 0.00 0.00 0.00 0.00 0.00 0.00 0.00 0.00 0.00 0.00 0.00 0.00 0.00 0.00 0.00 0.00 0.00 0.00 0.00 0.00 0.00 0.00 0.00 0.00 0.00 0.00 0.00 0.00 0.00 0.00 0.00 0.00 0.00 0.00 0.00 0.00 0.00
0.00 0.00 0.00 0.00 0.00 0.00 0.00 0.00 0.00 0.00 0.00 0.00 0.00 0.00 0.00 0.00 0.00 0.00 0.00 0.00 0.00 0.00 0.00 0.00 0.00 0.00 0.00 0.00 0.00 0.00 0.00 0.00 0.00 0.00 0.00 0.00 0.00 0.00 0.00 0.00 0.00 0.00 0.00 0.00 0.00 0.00 0.00 0.00 0.00
0.00 0.00 0.00 0.00 0.00 0.00 0.00 0.00 0.00 0.00 0.00 0.00 0.00 0.00 0.00 0.00 0.00 0.00 0.00 0.00 0.00 0.00 0.00 0.00 0.00 0.00 0.00 0.00 0.00 0.00 0.00 0.00 0.00 0.00 0.00 0.00 0.00 0.00 0.00 0.00 0.00 0.00 0.00 0.00 0.00 0.00 0.00 0.00 0.00
0.00 0.00 0.00 0.00 0.00 0.00 0.00 0.00 0.00 0.00 0.00 0.00 0.00 0.00 0.00 0.00 0.00 0.00 0.00 0.00 0.00 0.00 0.00 0.00 0.00 0.00 0.00 0.00 0.00 0.00 0.00 0.00 0.00 0.00 0.00 0.00 0.00 0.00 0.00 0.00 0.00 0.00 0.00 0.00 0.00 0.00 0.00 0.00 0.00
0.00 0.00 0.00 0.00 0.00 0.00 0.00 0.00 0.00 0.00 0.00 0.00 0.00 0.00 0.00 0.00 0.00 0.00 0.00 0.00 0.00 0.00 0.00 0.00 0.00 0.00 0.00 0.00 0.00 0.00 0.00 0.00 0.00 0.00 0.00 0.00 0.00 0.00 0.00 0.00 0.00 0.00 0.00 0.00 0.00 0.00 0.00 0.00 0.00
MSLP
1013.31 1014.14 1015.14 1016.18 1017.12 1017.84 1018.26 1018.38 1018.23 1017.90 1017.49 1017.12 1016.85 1016.71 1016.68 1016.72 1016.77 1016.77 1016.70 1016.58 1016.43 1016.31 1016.28 1016.36 1016.59 1016.94 1017.36 1017.82 1018.26 1018.65 1018.97 1019.23 1019.45 1019.64 1019.82 1020.02 1020.23 1020.44 1020.64 1020.83 1020.99 1021.13 1021.23 1021.31 1021.38 1021.42 1021.45 1021.47 1021.47
1013.69 1014.66 1015.73 1016.77 1017.62 1018.19 1018.40 1018.28 1017.89 1017.34 1016.77 1016.27 1015.93 1015.78 1015.77 1015.87 1016.00 1016.10 1016.14 1016.12 1016.07 1016.05 1016.11 1016.29 1016.59 1016.99 1017.46 1017.95 1018.42 1018.82 1019.16 1019.43 1019.66 1019.88 1020.08 1020.31 1020.53 1020.76 1020.98 1021.17 1021.34 1021.47 1021.57 1021.65 1021.72 1021.77 1021.81 1021.84 1021.86
1014.17 1015.21 1016.28 1017.24 1017.95 1018.32 1018.32 1017.98 1017.39 1016.69 1016.00 1015.44 1015.09 1014.95 1014.99 1015.16 1015.36 1015.55 1015.68 1015.76 1015.82 1015.90 1016.05 1016.30 1016.67 1017.12 1017.62 1018.12 1018.59 1019.00 1019.33 1019.61 1019.85 1020.08 1020.31 1020.55 1020.79 1021.03 1021.24 1021.43 1021.58 1021.70 1021.79 1021.87 1021.95 1022.01 1022.08 1022.14 1022.19
1014.72 1015.75 1016.75 1017.57 1018.10 1018.27 1018.07 1017.55 1016.83 1016.04 1015.31 1014.76 1014.44 1014.35 1014.45 1014.68 1014.95 1015.20 1015.40 1015.56 1015.70 1015.86 1016.09 1016.40 1016.82 1017.29 1017.80 1018.30 1018.75 1019.13 1019.46 1019.73 1019.98 1020.22 1020.47 1020.73 1020.99 1021.24 1021.45 1021.62 1021.76 1021.86 1021.95 1022.03 1022.11 1022.20 1022.30 1022.40 1022.49
1015.27 1016.24 1017.11 1017.76 1018.09 1018.06 1017.70 1017.07 1016.29 1015.49 1014.80 1014.31 1014.06 1014.04 1014.20 1014.47 1014.78 1015.07 1015.31 1015.52 1015.71 1015.93 1016.21 1016.57 1017.01 1017.49 1017.98 1018.45 1018.87 1019.22 1019.52 1019.79 1020.04 1020.30 1020.58 1020.87 1021.16 1021.42 1021.64 1021.81 1021.93 1022.03 1022.10 1022.18 1022.27 1022.38 1022.51 1022.64 1022.78
1015.76 1016.63 1017.33 1017.78 1017.92 1017.73 1017.26 1016.58 1015.82 1015.09 1014.50 1014.12 1013.96 1014.02 1014.23 1014.52 1014.84 1015.12 1015.37 1015.59 1015.80 1016.06 1016.37 1016.76 1017.20 1017.67 1018.14 1018.57 1018.94 1019.26 1019.53 1019.79 1020.05 1020.35 1020.66 1021.00 1021.32 1021.61 1021.85 1022.03 1022.15 1022.23 1022.30 1022.37 1022.47 1022.59 1022.74 1022.90 1023.06
1016.14 1016.86 1017.38 1017.64 1017.61 1017.31 1016.78 1016.12 1015.43 1014.83 1014.38 1014.13 1014.08 1014.21 1014.44 1014.74 1015.03 1015.28 1015.51 1015.71 1015.93 1016.19 1016.52 1016.92 1017.36 1017.82 1018.25 1018.64 1018.98 1019.26 1019.51 1019.77 1020.05 1020.38 1020.74 1021.12 1021.50 1021.83 1022.10 1022.29 1022.42 1022.50 1022.56 1022.63 1022.71 1022.83 1022.98 1023.15 1023.31
1016.35 1016.92 1017.26 1017.35 1017.19 1016.81 1016.28 1015.68 1015.12 1014.66 1014.36 1014.24 1014.30 1014.47 1014.72 1014.99 1015.24 1015.44 1015.62 1015.80 1016.01 1016.28 1016.62 1017.02 1017.46 1017.91 1018.32 1018.68 1018.99 1019.25 1019.49 1019.76 1020.06 1020.42 1020.83 1021.27 1021.69 1022.06 1022.36 1022.58 1022.72 1022.80 1022.85 1022.90 1022.98 1023.08 1023.21 1023.36 1023.52
1016.40 1016.81 1017.00 1016.95 1016.69 1016.28 1015.77 1015.27 1014.83 1014.52 1014.36 1014.36 1014.49 1014.69 1014.93 1015.16 1015.35 1015.51 1015.64 1015.80 1016.00 1016.27 1016.62 1017.03 1017.48 1017.93 1018.33 1018.69 1018.98 1019.24 1019.48 1019.76 1020.09 1020.49 1020.93 1021.41 1021.87 1022.28 1022.61 1022.84 1022.99 1023.07 1023.12 1023.16 1023.21 1023.28 1023.39 1023.51 1023.64
1016.31 1016.58 1016.63 1016.48 1016.16 1015.74 1015.28 1014.87 1014.55 1014.37 1014.32 1014.40 1014.56 1014.77 1014.98 1015.16 1015.30 1015.41 1015.52 1015.66 1015.86 1016.15 1016.52 1016.95 1017.42 1017.87 1018.29 1018.65 1018.96 1019.22 1019.49 1019.78 1020.13 1020.55 1021.01 1021.50 1021.98 1022.41 1022.76 1023.01 1023.17 1023.26 1023.30 1023.32 1023.35 1023.40 1023.48 1023.56 1023.65
1016.14 1016.29 1016.24 1016.00 1015.65 1015.25 1014.85 1014.52 1014.29 1014.18 1014.20 1014.31 1014.48 1014.66 1014.84 1014.97 1015.08 1015.16 1015.26 1015.40 1015.62 1015.92 1016.31 1016.77 1017.26 1017.74 1018.18 1018.56 1018.89 1019.19 1019.47 1019.79 1020.15 1020.56 1021.03 1021.52 1022.00 1022.42 1022.78 1023.04 1023.20 1023.29 1023.34 1023.36 1023.37 1023.40 1023.44 1023.50 1023.55
1015.95 1016.01 1015.88 1015.61 1015.25 1014.86 1014.51 1014.23 1014.06 1013.99 1014.01 1014.11 1014.25 1014.40 1014.53 1014.64 1014.72 1014.80 1014.90 1015.06 1015.29 1015.62 1016.03 1016.50 1017.01 1017.51 1017.98 1018.40 1018.77 1019.10 1019.41 1019.74 1020.10 1020.51 1020.95 1021.42 1021.87 1022.28 1022.62 1022.88 1023.06 1023.17 1023.23 1023.25 1023.27 1023.29 1023.31 1023.34 1023.36
1015.81 1015.80 1015.63 1015.34 1014.99 1014.63 1014.32 1014.07 1013.90 1013.82 1013.81 1013.86 1013.94 1014.04 1014.13 1014.22 1014.30 1014.39 1014.52 1014.69 1014.94 1015.27 1015.68 1016.16 1016.68 1017.20 1017.69 1018.15 1018.56 1018.94 1019.28 1019.63 1019.99 1020.37 1020.77 1021.20 1021.61 1021.99 1022.32 1022.58 1022.77 1022.90 1022.99 1023.04 1023.07 1023.09 1023.11 1023.13 1023.14
1015.75 1015.70 1015.51 1015.23 1014.91 1014.58 1014.29 1014.04 1013.84 1013.71 1013.64 1013.61 1013.62 1013.67 1013.73 1013.81 1013.90 1014.02 1014.17 1014.36 1014.61 1014.93 1015.32 1015.78 1016.28 1016.80 1017.32 1017.81 1018.27 1018.69 1019.08 1019.44 1019.80 1020.15 1020.51 1020.88 1021.24 1021.59 1021.90 1022.17 1022.38 1022.55 1022.68 1022.76 1022.83 1022.87 1022.90 1022.91 1022.92
1015.77 1015.71 1015.53 1015.28 1015.00 1014.70 1014.42 1014.15 1013.90 1013.69 1013.52 1013.40 1013.34 1013.33 1013.38 1013.47 1013.59 1013.73 1013.91 1014.11 1014.34 1014.63 1014.98 1015.38 1015.85 1016.36 1016.89 1017.42 1017.93 1018.40 1018.84 1019.22 1019.58 1019.91 1020.23 1020.54 1020.86 1021.16 1021.46 1021.73 1021.98 1022.19 1022.36 1022.50 1022.60 1022.68 1022.72 1022.75 1022.76
1015.85 1015.79 1015.65 1015.45 1015.21 1014.95 1014.66 1014.36 1014.04 1013.73 1013.45 1013.24 1013.10 1013.05 1013.09 1013.20 1013.36 1013.54 1013.74 1013.94 1014.14 1014.38 1014.66 1015.00 1015.41 1015.90 1016.44 1017.01 1017.57 1018.11 1018.60 1019.02 1019.38 1019.70 1019.98 1020.25 1020.52 1020.79 1021.07 1021.36 1021.63 1021.89 1022.11 1022.30 1022.45 1022.56 1022.63 1022.67 1022.68
1015.93 1015.91 1015.82 1015.68 1015.50 1015.27 1014.96 1014.60 1014.19 1013.77 1013.38 1013.07 1012.87 1012.79 1012.84 1012.98 1013.19 1013.42 1013.64 1013.83 1014.00 1014.18 1014.38 1014.65 1015.01 1015.48 1016.02 1016.63 1017.26 1017.87 1018.42 1018.88 1019.27 1019.58 1019.83 1020.06 1020.29 1020.53 1020.80 1021.09 1021.39 1021.69 1021.96 1022.20 1022.39 1022.54 1022.64 1022.69 1022.72
1015.98 1016.01 1016.00 1015.94 1015.81 1015.58 1015.25 1014.81 1014.30 1013.75 1013.24 1012.83 1012.57 1012.47 1012.54 1012.74 1013.01 1013.29 1013.55 1013.75 1013.89 1014.01 1014.15 1014.36 1014.68 1015.12 1015.68 1016.34 1017.03 1017.71 1018.33 1018.85 1019.26 1019.57 1019.80 1020.00 1020.20 1020.41 1020.67 1020.96 1021.28 1021.60 1021.91 1022.19 1022.41 1022.59 1022.72 1022.80 1022.84
1015.96 1016.07 1016.15 1016.17 1016.08 1015.85 1015.47 1014.93 1014.29 1013.60 1012.96 1012.46 1012.14 1012.04 1012.14 1012.40 1012.75 1013.11 1013.42 1013.65 1013.79 1013.88 1013.97 1014.14 1014.42 1014.86 1015.45 1016.15 1016.90 1017.65 1018.34 1018.91 1019.35 1019.67 1019.90 1020.07 1020.24 1020.43 1020.67 1020.95 1021.28 1021.61 1021.95 1022.24 1022.50 1022.70 1022.85 1022.95 1023.01
1015.87 1016.08 1016.26 1016.35 1016.30 1016.05 1015.59 1014.93 1014.13 1013.29 1012.52 1011.91 1011.54 1011.44 1011.59 1011.93 1012.38 1012.83 1013.22 1013.50 1013.66 1013.76 1013.84 1013.98 1014.26 1014.70 1015.31 1016.05 1016.87 1017.68 1018.42 1019.04 1019.51 1019.84 1020.06 1020.22 1020.36 1020.53 1020.75 1021.03 1021.35 1021.69 1022.02 1022.33 1022.60 1022.81 1022.99 1023.12 1023.21
1015.71 1016.05 1016.33 1016.50 1016.46 1016.17 1015.61 1014.81 1013.84 1012.83 1011.91 1011.20 1010.78 1010.69 1010.89 1011.32 1011.88 1012.45 1012.94 1013.29 1013.52 1013.64 1013.74 1013.89 1014.18 1014.63 1015.26 1016.03 1016.88 1017.74 1018.52 1019.17 1019.66 1020.00 1020.23 1020.38 1020.51 1020.67 1020.88 1021.14 1021.45 1021.78 1022.11 1022.41 1022.68 1022.91 1023.10 1023.25 1023.38
1015.49 1015.97 1016.37 1016.61 1016.58 1016.23 1015.56 1014.60 1013.45 1012.27 1011.21 1010.40 1009.93 1009.84 1010.10 1010.63 1011.30 1011.99 1012.60 1013.06 1013.36 1013.54 1013.68 1013.86 1014.15 1014.62 1015.26 1016.04 1016.91 1017.78 1018.57 1019.24 1019.75 1020.10 1020.34 1020.50 1020.64 1020.79 1021.00 1021.25 1021.55 1021.86 1022.17 1022.46 1022.72 1022.95 1023.15 1023.33 1023.49
1015.24 1015.86 1016.38 1016.68 1016.66 1016.25 1015.46 1014.35 1013.04 1011.69 1010.50 1009.59 1009.09 1009.01 1009.32 1009.94 1010.72 1011.53 1012.26 1012.82 1013.21 1013.47 1013.65 1013.86 1014.17 1014.64 1015.27 1016.04 1016.89 1017.75 1018.54 1019.21 1019.73 1020.10 1020.35 1020.54 1020.69 1020.87 1021.08 1021.33 1021.62 1021.92 1022.21 1022.48 1022.73 1022.95 1023.15 1023.34 1023.53
1014.94 1015.71 1016.34 1016.71 1016.69 1016.23 1015.34 1014.10 1012.65 1011.17 1009.87 1008.89 1008.36 1008.29 1008.65 1009.33 1010.21 1011.12 1011.95 1012.62 1013.09 1013.42 1013.65 1013.89 1014.20 1014.66 1015.27 1016.00 1016.82 1017.64 1018.41 1019.07 1019.59 1019.98 1020.27 1020.49 1020.68 1020.89 1021.12 1021.39 1021.68 1021.96 1022.23 1022.47 1022.69 1022.89 1023.08 1023.28 1023.48
1014.56 1015.48 1016.22 1016.64 1016.64 1016.15 1015.19 1013.86 1012.31 1010.75 1009.38 1008.36 1007.81 1007.75 1008.15 1008.88 1009.82 1010.81 1011.72 1012.45 1013.00 1013.38 1013.66 1013.91 1014.23 1014.66 1015.23 1015.92 1016.68 1017.46 1018.20 1018.84 1019.36 1019.78 1020.10 1020.37 1020.62 1020.87 1021.14 1021.43 1021.71 1021.99 1022.23 1022.44 1022.63 1022.80 1022.97 1023.16 1023.35
1014.10 1015.13 1015.96 1016.44 1016.46 1015.96 1014.98 1013.61 1012.03 1010.44 1009.05 1008.02 1007.48 1007.43 1007.84 1008.60 1009.57 1010.59 1011.54 1012.32 1012.91 1013.33 1013.64 1013.91 1014.22 1014.63 1015.16 1015.80 1016.51 1017.24 1017.93 1018.56 1019.09 1019.54 1019.91 1020.23 1020.54 1020.84 1021.15 1021.45 1021.74 1022.00 1022.22 1022.40 1022.55 1022.68 1022.82 1022.98 1023.16
1013.52 1014.63 1015.52 1016.05 1016.09 1015.61 1014.64 1013.30 1011.75 1010.19 1008.84 1007.85 1007.33 1007.29 1007.71 1008.46 1009.41 1010.42 1011.36 1012.15 1012.76 1013.20 1013.54 1013.83 1014.15 1014.55 1015.05 1015.65 1016.32 1017.00 1017.67 1018.29 1018.83 1019.30 1019.72 1020.09 1020.45 1020.80 1021.14 1021.46 1021.75 1021.99 1022.18 1022.33 1022.43 1022.53 1022.63 1022.75 1022.90
1012.82 1013.96 1014.88 1015.42 1015.49 1015.06 1014.15 1012.87 1011.41 1009.95 1008.68 1007.76 1007.28 1007.26 1007.66 1008.37 1009.27 1010.23 1011.13 1011.89 1012.49 1012.95 1013.31 1013.63 1013.97 1014.38 1014.88 1015.47 1016.12 1016.78 1017.44 1018.05 1018.61 1019.11 1019.56 1019.97 1020.37 1020.75 1021.11 1021.43 1021.71 1021.93 1022.10 1022.20 1022.28 1022.33 1022.40 1022.48 1022.60
1012.01 1013.13 1014.03 1014.57 1014.65 1014.26 1013.43 1012.28 1010.95 1009.63 1008.49 1007.67 1007.25 1007.24 1007.60 1008.24 1009.06 1009.93 1010.75 1011.46 1012.04 1012.50 1012.89 1013.25 1013.65 1014.10 1014.64 1015.25 1015.90 1016.58 1017.24 1017.86 1018.43 1018.95 1019.42 1019.87 1020.28 1020.67 1021.03 1021.34 1021.60 1021.80 1021.93 1022.01 1022.05 1022.08 1022.11 1022.17 1022.26
1011.16 1012.20 1013.02 1013.51 1013.59 1013.24 1012.51 1011.49 1010.32 1009.18 1008.19 1007.49 1007.13 1007.12 1007.44 1008.00 1008.70 1009.46 1010.18 1010.82 1011.37 1011.84 1012.27 1012.70 1013.16 1013.69 1014.29 1014.95 1015.65 1016.35 1017.04 1017.68 1018.26 1018.80 1019.29 1019.74 1020.15 1020.53 1020.87 1021.16 1021.38 1021.55 1021.65 1021.71 1021.73 1021.75 1021.77 1021.81 1021.88
Thickness
5740 5740 5739 5730 5708 5687 5690 5702 5710 5715 5719 5728 5730 5724 5719 5719 5718 5719 5732 5734 5734 5731 5727 5724 5720 5717 5714 5712 5709 5707 5704 5702 5700 5698 5697 5695 5693 5691 5690 5689 5688 5687 5686 5685 5684 5683 5683 5682 5682
5739 5739 5732 5717 5692 5678 5689 5704 5709 5717 5726 5729 5728 5726 5724 5726 5732 5731 5730 5730 5731 5729 5725 5722 5718 5715 5712 5709 5706 5703 5701 5699 5696 5694 5692 5690 5688 5686 5684 5683 5682 5680 5679 5678 5677 5676 5676 5675 5675
5740 5737 5721 5704 5689 5684 5698 5712 5714 5725 5729 5728 5725 5727 5727 5729 5732 5732 5733 5730 5728 5725 5722 5719 5716 5712 5709 5706 5703 5700 5697 5695 5692 5690 5687 5685 5683 5681 5679 5677 5675 5674 5673 5672 5671 5670 5669 5669 5668
5736 5726 5714 5699 5696 5700 5709 5719 5721 5724 5728 5729 5726 5723 5728 5733 5734 5734 5733 5729 5726 5722 5719 5716 5713 5710 5707 5703 5700 5697 5694 5691 5688 5686 5683 5681 5678 5676 5673 5671 5670 5668 5667 5666 5665 5664 5663 5662 5662
5730 5716 5702 5692 5700 5709 5715 5721 5724 5722 5725 5727 5725 5722 5726 5732 5733 5733 5731 5728 5724 5720 5717 5713 5710 5707 5704 5700 5697 5694 5691 5688 5685 5682 5679 5676 5673 5670 5668 5666 5664 5663 5661 5660 5659 5658 5657 5656 5656
5716 5707 5689 5688 5699 5711 5718 5725 5725 5724 5725 5726 5723 5721 5728 5731 5731 5729 5728 5725 5722 5718 5714 5711 5708 5704 5701 5697 5694 5690 5687 5684 5681 5678 5675 5671 5668 5665 5663 5661 5659 5657 5656 5654 5653 5652 5651 5650 5650
5710 5700 5692 5696 5698 5707 5720 5726 5725 5723 5723 5725 5725 5720 5726 5730 5729 5727 5725 5722 5718 5715 5711 5708 5705 5702 5698 5694 5691 5687 5683 5680 5677 5673 5670 5667 5664 5661 5658 5656 5653 5652 5650 5649 5647 5646 5645 5644 5644
5714 5701 5695 5694 5698 5707 5721 5726 5728 5726 5725 5729 5727 5721 5723 5729 5725 5723 5719 5716 5714 5711 5708 5705 5703 5699 5695 5691 5688 5684 5680 5676 5672 5669 5665 5662 5659 5656 5653 5650 5648 5646 5644 5643 5642 5641 5640 5639 5638
5715 5693 5687 5696 5701 5710 5721 5722 5727 5730 5727 5727 5727 5728 5729 5726 5722 5718 5714 5711 5709 5707 5705 5703 5700 5696 5693 5688 5684 5680 5676 5672 5669 5665 5661 5657 5654 5651 5648 5645 5643 5641 5639 5638 5636 5635 5634 5633 5632
5702 5687 5695 5706 5710 5714 5718 5720 5723 5724 5721 5722 5725 5726 5724 5721 5719 5716 5713 5710 5708 5706 5703 5700 5697 5694 5689 5685 5681 5677 5673 5669 5665 5661 5657 5653 5649 5646 5643 5640 5638 5636 5634 5633 5631 5630 5628 5627 5626
5702 5694 5701 5708 5714 5715 5715 5717 5721 5718 5714 5719 5722 5725 5720 5717 5716 5715 5713 5711 5709 5706 5702 5699 5695 5691 5686 5682 5678 5673 5669 5665 5661 5657 5653 5649 5645 5642 5639 5636 5634 5631 5630 5628 5626 5624 5622 5621 5620
5698 5700 5703 5708 5713 5712 5712 5715 5715 5715 5719 5727 5728 5726 5719 5716 5715 5715 5713 5710 5707 5703 5700 5697 5692 5688 5684 5679 5674 5670 5665 5661 5657 5653 5649 5645 5641 5638 5635 5632 5630 5627 5625 5623 5621 5619 5617 5616 5614
5693 5698 5703 5706 5707 5708 5709 5708 5711 5715 5722 5724 5724 5721 5717 5716 5715 5715 5713 5709 5704 5701 5698 5695 5690 5686 5681 5676 5671 5667 5662 5658 5654 5650 5646 5642 5638 5635 5632 5629 5626 5624 5621 5619 5617 5614 5612 5611 5609
5691 5694 5696 5698 5700 5702 5701 5704 5704 5714 5719 5718 5717 5716 5715 5714 5714 5711 5708 5705 5702 5700 5697 5693 5688 5683 5678 5673 5668 5664 5659 5655 5651 5647 5643 5639 5636 5632 5628 5625 5622 5620 5617 5615 5612 5610 5608 5606 5604
5687 5684 5685 5691 5693 5696 5696 5695 5702 5714 5713 5712 5712 5712 5711 5711 5710 5709 5708 5705 5703 5699 5696 5691 5686 5681 5675 5670 5665 5660 5656 5652 5648 5644 5640 5636 5632 5629 5625 5621 5618 5616 5613 5610 5607 5605 5602 5600 5599
5675 5669 5668 5680 5686 5689 5686 5685 5703 5710 5707 5706 5705 5705 5706 5707 5707 5707 5706 5704 5701 5697 5693 5689 5684 5678 5672 5667 5662 5657 5652 5648 5644 5640 5636 5632 5629 5625 5621 5617 5614 5611 5608 5605 5602 5599 5596 5594 5593
5654 5651 5657 5666 5678 5680 5677 5680 5697 5702 5701 5701 5701 5700 5700 5701 5703 5703 5703 5701 5698 5695 5691 5687 5682 5676 5669 5663 5658 5653 5648 5644 5640 5636 5632 5629 5625 5621 5617 5613 5610 5606 5602 5599 5596 5593 5590 5588 5587
5642 5642 5646 5653 5668 5669 5666 5673 5690 5694 5693 5695 5696 5695 5695 5696 5699 5700 5699 5697 5694 5691 5688 5683 5678 5672 5665 5658 5652 5647 5643 5639 5635 5632 5628 5625 5621 5617 5612 5608 5604 5601 5597 5593 5589 5586 5583 5581 5579
5642 5638 5639 5649 5660 5659 5658 5667 5686 5690 5688 5690 5691 5691 5692 5694 5695 5694 5692 5690 5687 5685 5682 5678 5673 5667 5661 5654 5648 5642 5637 5633 5629 5626 5623 5619 5615 5611 5607 5603 5598 5594 5590 5586 5583 5579 5575 5572 5570
5633 5630 5632 5643 5652 5649 5649 5660 5679 5686 5688 5694 5695 5695 5693 5690 5688 5687 5685 5682 5681 5679 5676 5673 5669 5663 5658 5652 5646 5639 5633 5628 5624 5620 5616 5613 5609 5605 5601 5596 5592 5587 5583 5578 5575 5571 5567 5563 5560
5623 5623 5628 5631 5639 5641 5639 5650 5670 5684 5687 5691 5693 5695 5692 5690 5686 5682 5678 5676 5673 5672 5670 5668 5663 5658 5653 5647 5639 5632 5625 5620 5616 5612 5609 5605 5602 5598 5594 5589 5584 5580 5575 5570 5566 5562 5558 5553 5549
5618 5627 5626 5625 5620 5618 5628 5623 5659 5674 5679 5686 5689 5687 5687 5687 5682 5678 5674 5670 5667 5665 5663 5661 5656 5652 5646 5641 5635 5629 5622 5615 5611 5606 5601 5597 5594 5590 5586 5581 5577 5572 5567 5562 5558 5554 5549 5544 5539
5621 5626 5620 5617 5612 5608 5616 5613 5646 5664 5671 5685 5688 5685 5684 5681 5678 5675 5671 5667 5662 5658 5655 5652 5649 5644 5639 5635 5630 5624 5617 5610 5603 5598 5594 5590 5585 5582 5577 5573 5568 5563 5558 5553 5549 5544 5540 5535 5530
5618 5612 5605 5597 5596 5595 5611 5607 5628 5657 5673 5682 5686 5683 5679 5675 5671 5667 5663 5658 5653 5649 5646 5644 5641 5636 5631 5627 5622 5617 5610 5603 5596 5591 5586 5581 5576 5572 5568 5564 5559 5554 5549 5544 5540 5535 5530 5525 5521
5610 5598 5585 5585 5582 5591 5608 5605 5627 5664 5674 5676 5679 5679 5673 5668 5664 5660 5655 5652 5647 5642 5639 5636 5633 5628 5623 5619 5615 5610 5604 5598 5592 5586 5579 5573 5568 5563 5559 5555 5550 5545 5540 5535 5530 5525 5521 5516 5511
5603 5600 5585 5579 5580 5587 5597 5599 5635 5662 5668 5670 5672 5673 5667 5661 5658 5656 5653 5648 5643 5638 5634 5630 5626 5621 5616 5612 5607 5602 5597 5591 5586 5580 5573 5567 5562 5557 5551 5546 5541 5536 5531 5526 5521 5516 5511 5506 5501
5595 5593 5599 5583 5580 5579 5589 5605 5631 5661 5664 5666 5665 5663 5659 5656 5652 5650 5646 5641 5637 5633 5628 5625 5620 5615 5610 5605 5600 5594 5589 5584 5578 5572 5566 5559 5554 5549 5543 5538 5532 5527 5522 5517 5512 5506 5501 5497 5492
5601 5594 5580 5575 5570 5572 5586 5599 5619 5648 5657 5659 5658 5655 5652 5649 5645 5642 5639 5635 5631 5627 5622 5617 5614 5609 5603 5598 5593 5587 5581 5576 5570 5564 5557 5551 5545 5540 5534 5529 5523 5518 5513 5508 5502 5497 5492 5487 5482
5588 5586 5586 5578 5573 5571 5576 5599 5631 5641 5648 5649 5651 5650 5646 5643 5640 5638 5634 5629 5624 5619 5614 5610 5606 5601 5595 5590 5585 5579 5573 5567 5561 5555 5549 5543 5537 5531 5525 5520 5514 5509 5503 5498 5493 5487 5482 5477 5472
5595 5592 5586 5576 5570 5568 5571 5597 5637 5637 5639 5641 5644 5645 5642 5639 5636 5632 5627 5622 5617 5612 5608 5604 5600 5595 5590 5584 5577 5571 5565 5559 5552 5546 5540 5534 5528 5522 5516 5510 5504 5499 5494 5489 5483 5478 5473 5467 5462